TimeCST,TemperatureF,Dew PointF,Humidity,Sea Level PressureIn,VisibilityMPH,Wind Direction,Wind SpeedMPH,Gust SpeedMPH,PrecipitationIn,Events,Conditions,WindDirDegrees,DateUTC
12:54 AM,34.0,24.1,67,29.96,10.0,SSW,15.0,-,N/A,,Clear,210,2013-11-14 06:54:00
1:54 AM,33.1,24.1,70,29.95,10.0,SSW,12.7,-,N/A,,Clear,200,2013-11-14 07:54:00
2:54 AM,33.1,23.0,66,29.94,10.0,SSW,13.8,-,N/A,,Clear,200,2013-11-14 08:54:00
3:54 AM,33.1,23.0,66,29.92,10.0,SSW,11.5,-,N/A,,Clear,210,2013-11-14 09:54:00
4:54 AM,32.0,23.0,69,29.91,10.0,SSW,13.8,-,N/A,,Clear,210,2013-11-14 10:54:00
5:54 AM,32.0,24.1,73,29.90,10.0,SSW,13.8,-,N/A,,Clear,200,2013-11-14 11:54:00
6:54 AM,32.0,25.0,75,29.91,10.0,SSW,10.4,-,N/A,,Clear,200,2013-11-14 12:54:00
7:54 AM,33.1,25.0,72,29.91,10.0,SSW,11.5,-,N/A,,Clear,200,2013-11-14 13:54:00
8:54 AM,36.0,26.1,67,29.92,10.0,SSW,12.7,-,N/A,,Mostly Cloudy,210,2013-11-14 14:54:00
9:54 AM,37.0,27.0,67,29.92,-9999.0,SW,11.5,-,N/A,,Unknown,220,2013-11-14 15:54:00
10:54 AM,-9999,-9999,N/A,29.88,-9999.0,North,-9999.0,-,N/A,,Unknown,0,2013-11-14 16:54:00
11:54 AM,39.9,30.9,70,29.90,10.0,West,8.1,-,0.00,Rain,Light Rain,260,2013-11-14 17:54:00
12:54 PM,39.9,33.1,77,29.88,7.0,SSW,6.9,-,0.00,Rain,Light Rain,210,2013-11-14 18:54:00
1:54 PM,41.0,35.1,79,29.85,9.0,South,8.1,-,0.01,Rain,Light Rain,180,2013-11-14 19:54:00
2:54 PM,41.0,37.0,86,29.85,10.0,South,8.1,-,0.00,,Overcast,190,2013-11-14 20:54:00
3:54 PM,42.1,37.0,82,29.86,10.0,SSW,9.2,-,N/A,,Overcast,200,2013-11-14 21:54:00
4:54 PM,41.0,35.1,79,29.86,10.0,SSW,10.4,-,N/A,,Scattered Clouds,200,2013-11-14 22:54:00
5:54 PM,37.9,33.1,83,29.87,10.0,SSW,9.2,-,N/A,,Clear,200,2013-11-14 23:54:00
6:54 PM,37.9,32.0,79,29.87,10.0,SSW,9.2,-,N/A,,Clear,200,2013-11-15 00:54:00
7:54 PM,37.0,32.0,82,29.87,10.0,SSW,8.1,-,N/A,,Clear,200,2013-11-15 01:54:00
8:54 PM,39.0,33.1,79,29.88,10.0,SW,9.2,-,N/A,,Clear,220,2013-11-15 02:54:00
9:54 PM,36.0,32.0,86,29.88,9.0,SW,8.1,-,N/A,,Clear,230,2013-11-15 03:54:00
10:54 PM,34.0,30.9,89,29.85,9.0,West,9.2,-,N/A,,Clear,260,2013-11-15 04:54:00
11:54 PM,35.1,30.9,85,29.88,9.0,West,9.2,-,N/A,,Clear,270,2013-11-15 05:54:00